Location: Coupvray
(48.8929°N, 2.7967°E)
Time: 10:57:46
(UTC+00:00)

CZ-4C R/B - Pass Details

Date: 14 July 2020
Orbit: 463 x 636 km, 98.0° (Epoch: 05 August)

Event Time Altitude Azimuth Distance (km) Brightness Sun altitude
Exits shadow 01:11:25 25° 145° (SE) 1,093 4.5 -17.4°
Maximum altitude 01:13:28 61° 73° (ENE) 591 3.6 -17.3°
Drops below altitude 10° 01:17:05 10° 353° (N) 1,708 6.8 -17.1°
Sets 01:19:08 0° 350° (N) 2,574 7.8 -17.0°
